sat.trackr.live / text

‹ back to catalog

THOR 7

NORAD 40613 · 2015-022A

PAYLOAD ACTIVE UNKNOWN

§ Identity

Operator
Country
NOR
Launch date
2015-04-26
Launch site
FRGUI
Launch vehicle
Mass (kg)
RCS (m²)
70.07

Purposes: comms

External: N2YO · Heavens-Above · Gunter

§ Orbital elements

Epoch: 2026-05-25T02:01:47.672256Z

Period
1,436.11 min
Inclination
0.0207°
Eccentricity
0.0002631
Mean motion
1.00270846 rev/d
Perigee alt
35,775.8 km
Apogee alt
35,798.0 km
Semi-major
42,165.0 km
B*
0.0000e+0
RAAN
75.8602°
Arg perigee
340.7636°
Mean anomaly
215.8510°
Rev number
4,058

§ Raw data

THOR 71 40613U 15022A   26145.08457954 -.00000011  00000+0  00000+0 0  99952 40613   0.0207  75.8602 0002631 340.7636 215.8510  1.00270846 40581

JSON: /api/v1/satellites/40613 · /tle

For live sub-satellite position, see the globe view (requires WebGL).

§ Visibility from observer

Set your observer location to see the next 7 days of passes ≥ 10°. The values pass through the URL so the page stays shareable.

No JS? Fill the form by hand. The geolocation button needs JavaScript.